TimeCDT,TemperatureF,Dew PointF,Humidity,Sea Level PressureIn,VisibilityMPH,Wind Direction,Wind SpeedMPH,Gust SpeedMPH,PrecipitationIn,Events,Conditions,WindDirDegrees,DateUTC
12:53 AM,37.0,26.1,65,30.36,10.0,WNW,9.2,-,N/A,,Clear,290,2012-10-05 05:53:00
1:53 AM,34.0,25.0,70,30.36,10.0,West,6.9,-,N/A,,Scattered Clouds,270,2012-10-05 06:53:00
3:53 AM,30.9,24.1,76,30.35,10.0,Variable,6.9,21.9,N/A,,Clear,0,2012-10-05 08:53:00
4:53 AM,30.0,23.0,75,30.35,10.0,WNW,8.1,-,N/A,,Clear,300,2012-10-05 09:53:00
5:53 AM,28.9,23.0,78,30.35,10.0,North,-9999.0,-,N/A,,Clear,0,2012-10-05 10:53:00
6:53 AM,28.9,21.9,75,30.36,10.0,North,-9999.0,-,N/A,,Clear,0,2012-10-05 11:53:00
7:53 AM,28.0,21.9,78,30.38,10.0,NW,9.2,-,N/A,,Clear,310,2012-10-05 12:53:00
8:53 AM,32.0,24.1,73,30.37,10.0,NW,10.4,-,N/A,,Clear,310,2012-10-05 13:53:00
9:53 AM,39.0,26.1,60,30.38,10.0,NNW,10.4,-,N/A,,Clear,330,2012-10-05 14:53:00
10:53 AM,43.0,24.1,47,30.38,10.0,NNW,15.0,23.0,N/A,,Clear,330,2012-10-05 15:53:00
12:53 PM,48.0,21.0,34,30.37,10.0,NW,13.8,23.0,N/A,,Partly Cloudy,310,2012-10-05 17:53:00
1:53 PM,48.9,21.0,33,30.34,10.0,NW,17.3,25.3,N/A,,Clear,320,2012-10-05 18:53:00
2:53 PM,51.1,21.9,32,30.32,10.0,NNW,19.6,27.6,N/A,,Clear,330,2012-10-05 19:53:00
3:53 PM,50.0,19.9,31,30.31,10.0,NW,20.7,26.5,N/A,,Clear,320,2012-10-05 20:53:00
4:53 PM,50.0,18.0,28,30.30,10.0,NW,19.6,26.5,N/A,,Clear,320,2012-10-05 21:53:00
5:53 PM,46.9,17.1,30,30.32,10.0,NNW,17.3,25.3,N/A,,Clear,330,2012-10-05 22:53:00
6:53 PM,44.1,19.0,37,30.33,10.0,NNW,11.5,-,N/A,,Clear,340,2012-10-05 23:53:00
7:53 PM,39.0,19.9,46,30.36,10.0,NW,10.4,-,N/A,,Clear,320,2012-10-06 00:53:00
8:53 PM,36.0,19.0,50,30.38,10.0,NNW,11.5,-,N/A,,Clear,340,2012-10-06 01:53:00
9:53 PM,34.0,18.0,52,30.38,10.0,NNW,10.4,-,N/A,,Clear,340,2012-10-06 02:53:00
10:53 PM,28.0,17.1,63,30.38,10.0,NW,9.2,-,N/A,,Clear,320,2012-10-06 03:53:00
11:53 PM,27.0,17.1,66,30.39,10.0,WNW,8.1,-,N/A,,Clear,300,2012-10-06 04:53:00